EW0641 Weather Reports


Display with metric or nautical units.
time (UTC)temp
F
wind
direction
speed
MPH
gust
MPH
rain 1hr
in
rain 24hr
in
rain mn
in
humidity
%
barometer
mb
20260902213101 94 300 0.0 7.0 0.00 0.03 0.03 54 1010.1
20260902211557 94 278 0.0 10.0 0.00 0.03 0.03 55 1010.1
20260902210100 94 219 1.0 13.0 0.00 0.03 0.03 55 1010.2
20260902204551 94 292 1.0 10.0 0.00 0.03 0.03 55 1010.3
20260902203051 95 307 1.0 10.0 0.00 0.03 0.03 54 1010.5
20260902201549 95 292 0.0 8.0 0.00 0.03 0.03 53 1010.7
20260902200050 97 309 4.0 9.0 0.00 0.03 0.03 52 1010.8
20260902194547 97 281 4.0 11.0 0.00 0.03 0.03 52 1011.0
20260902193046 96 314 1.0 7.0 0.00 0.03 0.03 55 1011.1
20260902191544 96 275 0.0 7.0 0.00 0.03 0.03 53 1011.3
20260902190047 95 297 0.0 8.0 0.00 0.03 0.03 54 1011.3
20260902184541 97 281 4.0 11.0 0.00 0.03 0.03 51 1011.3
20260902183041 97 293 4.0 12.0 0.00 0.03 0.03 52 1011.3
20260902181538 95 308 0.0 5.0 0.00 0.03 0.03 57 1011.6
20260902180036 96 300 0.0 9.0 0.00 0.03 0.03 55 1011.8
20260902174534 96 263 0.0 14.0 0.00 0.03 0.03 58 1012.0
20260902173036 95 304 4.0 9.0 0.00 0.03 0.03 58 1012.3
20260902171529 94 253 0.0 7.0 0.00 0.03 0.03 60 1012.5
20260902170025 93 259 0.0 7.0 0.00 0.03 0.03 62 1012.6
20260902164524 93 227 0.0 9.0 0.00 0.03 0.03 63 1012.8
20260902163022 93 225 1.0 8.0 0.00 0.03 0.03 63 1013.0
20260902161525 93 282 0.0 5.0 0.00 0.03 0.03 63 1013.1
20260902160018 92 229 0.0 0.0 0.00 0.03 0.03 65 1013.1
20260902154516 91 217 1.0 7.0 0.00 0.03 0.03 64 1013.1
20260902153014 90 282 0.0 0.0 0.00 0.03 0.03 67 1013.1
20260902151511 90 238 0.0 4.0 0.00 0.03 0.03 70 1013.0
20260902150008 89 216 0.0 0.0 0.00 0.03 0.03 71 1012.9
20260902144507 88 214 0.0 5.0 0.00 0.03 0.03 74 1013.0
20260902143003 87 280 0.0 0.0 0.00 0.03 0.03 74 1013.1
20260902141558 85 298 0.0 0.0 0.00 0.03 0.03 78 1013.0
20260902140057 84 299 0.0 4.0 0.00 0.03 0.03 80 1012.9
20260902134603 83 308 0.0 0.0 0.00 0.03 0.03 83 1013.1
20260902133052 82 263 0.0 1.0 0.00 0.03 0.03 85 1013.0
20260902131549 81 238 0.0 2.0 0.00 0.03 0.03 87 1013.2
20260902130048 80 220 0.0 3.0 0.00 0.03 0.03 90 1013.0
20260902124542 78 226 0.0 0.0 0.00 0.04 0.03 92 1013.0
20260902123041 78 226 0.0 0.0 0.00 0.04 0.03 93 1013.1
20260902121544 77 226 0.0 0.0 0.00 0.04 0.03 93 1013.1
20260902120041 77 226 0.0 0.0 0.00 0.04 0.03 93 1013.0
20260902114540 76 225 0.0 0.0 0.00 0.04 0.03 93 1013.1
20260902113039 76 226 0.0 0.0 0.00 0.04 0.03 93 1013.0
20260902111538 76 226 0.0 0.0 0.00 0.04 0.03 93 1013.0
20260902110038 76 226 0.0 3.0 0.00 0.04 0.03 93 1012.9
20260902104538 76 303 0.0 0.0 0.00 0.04 0.03 93 1012.8
20260902103040 76 303 0.0 0.0 0.00 0.04 0.03 93 1012.7
20260902101535 76 303 0.0 1.0 0.03 0.04 0.03 92 1012.6
20260902100040 76 313 0.0 0.0 0.03 0.04 0.03 92 1012.7
20260902094533 77 315 0.0 0.0 0.03 0.04 0.03 91 1012.7
20260902093032 77 321 0.0 3.0 0.03 0.04 0.03 91 1012.7
20260902091556 77 217 0.0 0.0 0.00 0.01 0.00 90 1012.8
20260902090031 77 216 0.0 6.0 0.00 0.01 0.00 90 1012.6
20260902084535 77 219 0.0 1.0 0.00 0.01 0.00 90 1012.6
20260902083030 77 223 0.0 4.0 0.00 0.01 0.00 89 1012.6
20260902081534 77 227 0.0 6.0 0.00 0.01 0.00 89 1012.4
20260902080036 77 244 0.0 0.0 0.00 0.01 0.00 89 1012.5
20260902074530 77 255 0.0 0.0 0.00 0.01 0.00 88 1012.6
20260902073027 77 256 0.0 0.0 0.00 0.01 0.00 88 1012.5
20260902071548 77 262 0.0 0.0 0.00 0.01 0.00 87 1012.4
20260902070024 78 264 0.0 0.0 0.00 0.01 0.00 87 1012.4
20260902064522 78 266 0.0 0.0 0.00 0.01 0.00 86 1012.5
20260902063026 78 274 0.0 0.0 0.00 0.01 0.00 86 1012.7
20260902061529 78 274 0.0 0.0 0.00 0.01 0.00 86 1012.9
20260902060022 78 274 0.0 0.0 0.00 0.01 0.00 86 1013.1
20260902054532 79 274 0.0 0.0 0.00 0.01 0.00 85 1013.1
20260902053019 79 274 0.0 0.0 0.00 0.01 0.00 85 1013.1
20260902051514 79 274 0.0 0.0 0.00 0.01 0.00 85 1013.0
20260902050015 79 274 0.0 0.0 0.00 0.01 0.00 85 1013.2
20260902044517 79 274 0.0 0.0 0.00 0.01 0.00 85 1013.1
20260902043012 79 274 0.0 0.0 0.00 0.01 0.00 85 1013.1
20260902041511 79 274 0.0 0.0 0.00 0.01 0.00 85 1013.1
20260902040009 79 274 0.0 0.0 0.00 0.01 0.00 85 1012.9
20260902034509 79 274 0.0 0.0 0.00 0.01 0.01 85 1012.9
20260902033008 80 274 0.0 0.0 0.00 0.01 0.01 84 1012.7
20260902031507 80 274 0.0 0.0 0.00 0.01 0.01 83 1012.7
20260902030007 80 274 0.0 0.0 0.00 0.01 0.01 83 1012.6
20260902024510 81 274 0.0 0.0 0.00 0.01 0.01 82 1012.6
20260902023014 81 274 0.0 0.0 0.00 0.01 0.01 81 1012.7
20260902021506 82 274 0.0 0.0 0.00 0.01 0.01 80 1012.7
20260902020005 82 274 0.0 0.0 0.00 0.01 0.01 79 1012.7
20260902014505 83 288 0.0 0.0 0.00 0.01 0.01 79 1012.8
20260902013005 83 288 0.0 0.0 0.00 0.01 0.01 79 1012.8
20260902011508 83 288 0.0 0.0 0.00 0.01 0.01 79 1012.6
20260902010007 83 288 0.0 0.0 0.00 0.01 0.01 78 1012.5
20260902004503 83 288 0.0 4.0 0.00 0.01 0.01 79 1012.4
20260902003003 84 288 0.0 1.0 0.00 0.01 0.01 79 1012.3
20260902001505 84 290 0.0 3.0 0.00 0.01 0.01 78 1012.1
20260902000005 85 228 0.0 1.0 0.00 0.01 0.01 77 1012.0
20260901234501 85 284 0.0 6.0 0.00 0.01 0.01 76 1012.1
20260901233000 86 259 0.0 4.0 0.00 0.01 0.01 76 1012.0
20260901231659 86 223 0.0 4.0 0.00 0.01 0.01 77 1012.1
20260901230103 87 277 0.0 6.0 0.00 0.01 0.01 76 1012.1
20260901224559 87 250 0.0 9.0 0.00 0.01 0.01 76 1012.0
20260901223059 88 213 0.0 9.0 0.00 0.01 0.01 76 1012.1
20260901221615 89 234 0.0 6.0 0.00 0.01 0.01 74 1012.1
20260901220057 89 234 0.0 10.0 0.00 0.01 0.01 74 1012.0
20260901214557 89 226 1.0 8.0 0.00 0.01 0.01 74 1011.9